Regional Weather Roundup
Issued by NWS

Home | Current Version | Previous Version | Text Only | Print | Product List | Glossary Off
Versions: 1 2 3 4 5 6 7 8 9 10 11 12 13 14 15 16 17 18 19 20 21 22 23 24 25 26 27 28 29 30 31 32 33 34 35 36 37 38 39 40 41 42 43 44 45 46 47 48 49 50

000
ASUS43 KBIS 240031
RWRND
NORTH DAKOTA REGIONAL WEATHER ROUNDUP
NATIONAL WEATHER SERVICE EASTERN NORTH DAKOTA/GRAND FORKS ND
700 PM CDT WED MAY 23 2018

  NOTE: "FAIR" INDICATES FEW OR NO CLOUDS BELOW 12,000 FEET WITH NO
  SIGNIFICANT WEATHER AND/OR OBSTRUCTIONS TO VISIBILITY.

NDZ001>003-009>011-017-240100-
...NORTHWEST NORTH DAKOTA...

CITY           SKY/WX    TMP DP  RH WIND       PRES   REMARKS
WILLISTON      FAIR      77  60  55 NE8       29.81F
6HR MIN TEMP:  67; 6HR MAX TEMP:  77; 6HR PCP:  0.03;

MINOT          PTSUNNY   82  57  42 SE17G28   29.83S
MINOT AFB      FAIR      80  58  46 S14       29.81S
6HR MIN TEMP:  76; 6HR MAX TEMP:  84;

$$

NDZ018>021-031>035-040>046-240100-
...SOUTHWEST NORTH DAKOTA...

CITY           SKY/WX    TMP DP  RH WIND       PRES   REMARKS
BISMARCK       FAIR      83  64  52 S15       29.83S
DICKINSON      FAIR      77  58  51 S12       29.83R
GARRISON         N/A     78  62  57 SE14      29.83F
HETTINGER      FAIR      73  59  61 S9        29.86R
$$

NDZ004>008-012>016-024-026-027-054-240100-
...NORTHEAST NORTH DAKOTA...

CITY           SKY/WX    TMP DP  RH WIND       PRES   REMARKS
GRAND FORKS    PTSUNNY   79  61  53 S12       29.92S
GRAND FORKS AF FAIR      79  61  53 S16G24    29.93R
DEVILS LAKE    PTSUNNY   78  62  57 S16G22    29.92R
$$

NDZ022-023-025-028>030-036>039-047>053-240100-
...SOUTHEAST NORTH DAKOTA...

CITY           SKY/WX    TMP DP  RH WIND       PRES   REMARKS
JAMESTOWN      FAIR      78  66  66 SE14      29.89F
FARGO          FAIR      78  62  57 SE13      29.94F
WAHPETON       FAIR      73  57  56 SE13      29.94F
$$




USA.gov is the U.S. government's official web portal to all federal, state and local government web resources and services.